Lapse_Rate
4.6 2.9 3.0 3.2 3.2 3.9 3.9 3.0 2.6 3.1 4.0 4.1 3.9 3.3 3.1 2.8 2.5 2.5 2.8 2.9 3.2 3.6 4.1 4.4 4.5 5.0 5.7
5.3 4.3 3.0 2.1 2.6 2.4 2.5 2.9 2.1 2.6 3.3 3.8 3.9 3.6 3.3 3.0 2.4 2.3 2.3 2.5 2.6 2.8 3.3 4.0 4.2 4.1 4.5
5.4 3.8 3.1 2.1 2.0 1.8 1.7 1.3 2.1 2.2 2.8 3.2 3.7 3.7 3.4 3.3 2.8 2.2 2.0 2.3 2.3 2.3 2.4 2.8 3.4 3.7 3.9
4.5 3.7 2.7 2.5 1.6 1.9 1.6 0.6 0.9 1.9 2.0 1.7 2.5 2.5 3.2 3.3 3.4 2.5 2.0 2.1 2.5 2.3 2.2 2.3 2.5 2.9 3.1
4.5 3.3 2.5 2.3 2.5 2.2 1.6 1.2 0.1 -0.5 -0.5 -0.7 -1.1 -0.9 0.3 1.3 2.3 2.7 2.4 2.6 2.7 2.5 2.4 2.3 2.3 2.4 2.5
5.1 5.2 5.5 3.6 1.6 1.8 1.4 2.0 3.3 -0.9 -0.4 0.4 -0.7 -0.6 -1.2 -0.6 0.7 2.1 2.6 3.1 3.2 3.1 2.7 2.4 2.2 2.3 2.3
4.6 3.2 3.2 2.3 2.5 1.7 0.8 1.4 1.3 0.8 1.0 0.4 -1.2 -0.1 -0.4 0.5 1.6 1.9 2.4 2.9 3.4 3.4 2.8 2.6 2.6 2.5 2.4
3.4 3.5 2.8 2.9 2.5 2.8 2.1 1.4 0.7 0.1 0.5 0.7 -1.5 -0.6 -0.5 -0.4 1.4 2.4 2.7 3.1 3.4 3.6 2.9 2.5 2.5 2.6 2.7
5.1 5.0 5.2 5.1 4.1 1.3 1.8 1.3 2.1 1.6 -0.1 2.1 -0.1 0.1 -0.6 -0.5 -0.2 1.8 3.2 3.8 3.7 3.7 3.5 2.9 2.7 2.8 2.0
2.6 2.8 3.0 2.6 5.1 2.6 2.2 1.8 2.6 4.1 0.8 1.6 -1.0 -0.6 0.1 -2.5 -1.8 -0.9 0.6 3.2 4.4 4.4 4.7 4.4 4.0 3.1 1.2
4.4 3.1 2.2 2.2 2.4 3.4 3.3 3.6 3.6 4.6 3.2 1.7 -1.6 -1.3 -1.5 -0.7 -1.3 -2.1 -0.2 0.9 1.4 2.5 3.9 5.1 5.3 4.7 3.1
4.8 4.7 4.5 4.3 3.7 3.6 3.3 3.1 3.7 4.2 4.0 2.5 3.4 1.0 -1.2 -1.1 1.3 -0.4 -1.8 -1.3 -0.2 -0.8 -0.1 2.5 3.8 4.8 4.7
5.0 4.4 3.8 3.5 3.4 3.5 2.7 3.6 2.7 3.1 3.3 2.7 2.6 1.3 1.0 1.5 0.6 -0.7 0.5 -0.3 -1.6 -1.3 -2.2 -0.9 -0.4 0.4 -0.4
5.2 4.2 3.8 3.7 4.2 3.5 3.7 3.4 3.6 3.7 2.4 2.8 2.3 2.0 2.0 2.0 1.7 -0.4 -0.2 2.0 -2.3 -2.1 -0.8 -0.5 0.8 0.6 0.1
5.0 4.8 4.8 4.7 4.9 4.1 4.1 4.2 4.6 4.3 3.7 2.5 2.0 1.8 2.0 1.7 2.4 1.0 1.3 0.5 -0.6 -1.1 -0.4 -0.6 0.6 1.1 0.8
5.3 5.3 5.4 5.7 5.6 5.1 4.9 4.9 5.1 5.0 4.7 3.6 2.4 2.2 1.5 1.3 2.4 1.8 0.5 0.6 -0.7 -0.6 -0.2 -1.7 -1.0 0.4 1.7
5.9 5.7 5.4 5.6 6.1 6.2 5.8 5.5 5.7 5.4 5.0 3.9 3.2 2.8 1.6 1.1 2.1 3.6 1.2 0.5 -1.1 -0.9 -0.4 0.6 -1.2 0.7 2.2
Wind_Speed
4 5 4 5 6 10 10 11 11 11 13 13 10 8 7 5 4 6 7 8 9 11 12 12 13 15 17
4 4 6 5 5 5 4 7 7 10 12 13 12 9 8 5 3 3 3 4 6 8 9 10 11 12 13
8 2 4 2 3 3 3 4 7 8 9 10 11 10 8 7 6 4 2 1 3 5 7 8 9 10 10
6 4 4 2 2 3 4 2 3 3 5 5 8 8 9 9 9 7 5 3 2 1 3 4 6 7 7
5 2 3 2 4 2 3 2 3 3 2 2 2 3 7 9 9 9 8 7 5 4 1 1 3 4 5
5 6 7 4 3 4 3 2 3 2 2 2 2 3 3 8 10 11 10 9 8 7 4 2 0 1 2
8 6 4 5 4 3 5 4 4 3 2 3 2 3 3 7 10 12 12 11 10 9 5 4 3 1 0
5 6 5 4 5 4 4 3 2 2 2 3 1 3 2 5 7 11 13 14 12 12 10 6 4 3 3
10 11 13 14 8 4 2 2 2 2 3 1 1 2 2 2 3 5 12 14 12 12 12 9 7 6 3
5 5 5 6 8 7 4 3 2 2 2 3 0 1 3 1 2 3 2 5 10 12 14 12 11 7 3
4 4 4 4 4 4 5 4 3 3 5 4 2 1 1 2 2 1 1 2 1 3 6 11 12 10 4
3 3 3 3 3 3 4 5 6 5 4 4 2 3 3 1 2 2 1 2 1 1 2 2 3 7 9
4 3 2 2 3 3 2 4 3 5 8 8 3 4 3 3 3 2 1 1 2 2 1 2 2 2 0
3 3 2 2 2 2 2 1 2 2 5 10 6 4 3 3 2 2 2 2 1 1 1 1 2 5 3
3 3 3 2 2 2 2 2 3 2 2 2 3 4 3 3 3 4 4 3 3 2 1 2 3 4 4
4 4 3 3 3 2 3 3 3 3 3 2 3 2 1 4 13 6 2 3 2 3 2 2 3 3 7
5 4 4 4 5 4 4 4 4 4 4 3 3 3 3 3 2 18 4 2 2 0 3 4 3 2 3
Wind_Direction
220 221 235 257 282 288 295 298 294 296 294 296 283 293 304 312 343 355 5 11 13 17 22 29 40 39 46
266 241 229 218 242 276 278 279 275 287 288 290 280 279 292 281 284 331 0 11 19 23 26 32 42 48 51
272 254 261 243 258 252 264 284 278 279 287 292 274 261 272 267 252 265 302 328 38 33 32 33 41 50 54
257 253 235 236 252 254 280 246 284 280 272 264 273 266 263 267 259 232 239 253 230 90 31 33 41 51 53
251 227 233 214 214 222 242 271 281 235 290 278 186 209 261 272 263 230 233 243 234 200 190 28 43 54 54
248 245 243 202 192 216 207 191 285 208 186 286 246 238 222 229 237 236 236 236 235 219 220 199 229 41 52
242 237 246 208 199 211 215 201 219 226 160 256 195 266 253 245 226 221 217 215 220 209 217 223 224 243 262
241 266 240 240 207 199 204 219 285 259 167 249 162 254 277 258 243 217 212 207 204 208 203 215 229 259 284
293 280 273 265 234 137 204 141 272 258 207 204 216 270 281 297 284 241 216 200 202 207 199 215 226 235 248
312 309 305 299 296 190 165 184 197 307 216 174 283 100 327 317 325 311 278 225 211 212 205 214 222 222 207
262 262 278 278 261 227 195 194 191 229 187 150 167 94 123 305 308 302 278 265 207 229 236 222 220 224 227
275 272 270 274 273 253 223 218 222 220 168 177 195 164 160 354 258 322 274 258 212 239 232 228 212 227 246
256 242 223 219 311 316 289 242 224 231 220 187 183 165 166 203 214 240 349 271 210 191 211 200 183 162 182
243 230 203 179 226 207 241 247 228 248 205 210 190 158 185 222 183 250 217 240 344 239 222 252 223 219 212
239 244 247 223 238 195 208 193 232 222 212 193 175 182 184 166 223 228 235 236 218 212 154 269 258 230 222
237 226 234 237 243 221 211 218 230 235 232 178 148 122 30 259 217 237 216 231 215 192 195 177 274 235 232
255 234 212 221 258 236 225 222 227 225 224 173 163 150 166 219 284 212 209 207 169 213 187 201 223 229 218